Time,TemperatureF,DewpointF,PressureIn,WindDirection,WindDirectionDegrees,WindSpeedMPH,WindSpeedGustMPH,Humidity,HourlyPrecipIn,Conditions,Clouds,dailyrainin,SoftwareType,DateUTC
2013-04-19 00:00:00,38.1,28.5,30.06,WNW,292,0.0,4.7,68,0.00,,,0.00,WUHU21623XXSP,2013-04-19 05:00:00,
2013-04-19 00:05:00,37.9,28.3,30.06,NNW,337,0.0,4.7,68,0.00,,,0.00,WUHU21623XXSP,2013-04-19 05:05:00,
2013-04-19 00:10:00,37.8,28.1,30.06,WSW,247,0.0,4.0,68,0.00,,,0.00,WUHU21623XXSP,2013-04-19 05:10:00,
2013-04-19 00:15:00,37.6,28.0,30.06,WSW,247,0.0,0.0,68,0.00,,,0.00,WUHU21623XXSP,2013-04-19 05:15:00,
2013-04-19 00:20:00,37.6,28.0,30.06,WSW,247,0.0,0.0,68,0.00,,,0.00,WUHU21623XXSP,2013-04-19 05:20:00,
2013-04-19 00:25:00,37.4,27.4,30.06,West,270,0.0,0.0,67,0.00,,,0.00,WUHU21623XXSP,2013-04-19 05:25:00,
2013-04-19 00:30:00,37.2,26.9,30.06,WSW,247,0.0,3.8,66,0.00,,,0.00,WUHU21623XXSP,2013-04-19 05:30:00,
2013-04-19 00:37:00,37.2,27.3,30.06,WSW,247,0.0,3.8,67,0.00,,,0.00,WUHU21623XXSP,2013-04-19 05:37:00,
2013-04-19 00:42:00,37.2,27.3,30.06,WNW,292,0.0,0.0,67,0.00,,,0.00,WUHU21623XXSP,2013-04-19 05:42:00,
2013-04-19 00:47:00,37.0,26.7,30.06,West,270,0.0,0.0,66,0.00,,,0.00,WUHU21623XXSP,2013-04-19 05:47:00,
2013-04-19 00:52:00,37.0,26.7,30.06,West,270,0.0,0.0,67,0.00,,,0.00,WUHU21623XXSP,2013-04-19 05:52:00,
2013-04-19 00:57:00,36.9,26.5,30.06,WNW,292,0.0,0.0,66,0.00,,,0.00,WUHU21623XXSP,2013-04-19 05:57:00,
2013-04-19 01:02:00,36.9,26.9,30.06,NNW,337,0.0,0.0,67,0.00,,,0.00,WUHU21623XXSP,2013-04-19 06:02:00,
2013-04-19 01:23:00,36.5,26.6,30.06,WNW,292,0.0,0.0,67,0.00,,,0.00,WUHU21623XXSP,2013-04-19 06:23:00,
2013-04-19 01:28:00,36.5,26.2,30.05,WSW,247,0.0,0.0,66,0.00,,,0.00,WUHU21623XXSP,2013-04-19 06:28:00,
2013-04-19 01:33:00,36.5,26.2,30.05,WSW,247,0.0,0.0,66,0.00,,,0.00,WUHU21623XXSP,2013-04-19 06:33:00,
2013-04-19 01:38:00,36.3,26.0,30.06,WSW,247,0.0,0.0,66,0.00,,,0.00,WUHU21623XXSP,2013-04-19 06:38:00,
2013-04-19 01:43:00,36.3,26.0,30.05,WSW,247,0.0,0.0,66,0.00,,,0.00,WUHU21623XXSP,2013-04-19 06:43:00,
2013-04-19 01:48:00,36.3,26.4,30.05,WSW,247,0.0,0.0,67,0.00,,,0.00,WUHU21623XXSP,2013-04-19 06:48:00,
2013-04-19 01:53:00,36.3,26.4,30.05,WSW,247,0.0,0.0,67,0.00,,,0.00,WUHU21623XXSP,2013-04-19 06:53:00,
2013-04-19 01:58:00,36.3,26.4,30.05,WSW,247,0.0,0.0,67,0.00,,,0.00,WUHU21623XXSP,2013-04-19 06:58:00,
2013-04-19 02:03:00,36.3,26.4,30.05,WSW,247,0.0,0.0,67,0.00,,,0.00,WUHU21623XXSP,2013-04-19 07:03:00,
2013-04-19 02:15:00,36.3,26.4,30.05,WSW,247,0.0,0.0,67,0.00,,,0.00,WUHU21623XXSP,2013-04-19 07:15:00,
2013-04-19 02:20:00,36.3,26.4,30.05,WSW,247,0.0,0.0,67,0.00,,,0.00,WUHU21623XXSP,2013-04-19 07:20:00,
2013-04-19 02:25:00,36.3,26.4,30.05,WSW,247,0.0,0.0,67,0.00,,,0.00,WUHU21623XXSP,2013-04-19 07:25:00,
2013-04-19 02:30:00,36.3,26.4,30.05,WSW,247,0.0,0.0,67,0.00,,,0.00,WUHU21623XXSP,2013-04-19 07:30:00,
2013-04-19 02:35:00,36.3,26.4,30.04,WSW,247,0.0,0.0,67,0.00,,,0.00,WUHU21623XXSP,2013-04-19 07:35:00,
2013-04-19 02:40:00,36.3,26.8,30.04,WSW,247,0.0,0.0,68,0.00,,,0.00,WUHU21623XXSP,2013-04-19 07:40:00,
2013-04-19 02:45:00,36.3,26.8,30.05,WSW,247,0.0,0.0,68,0.00,,,0.00,WUHU21623XXSP,2013-04-19 07:45:00,
2013-04-19 02:50:00,36.3,26.8,30.05,WSW,247,0.0,0.0,68,0.00,,,0.00,WUHU21623XXSP,2013-04-19 07:50:00,
2013-04-19 02:55:00,36.3,26.8,30.04,West,270,0.0,0.0,68,0.00,,,0.00,WUHU21623XXSP,2013-04-19 07:55:00,
2013-04-19 03:00:00,36.3,26.8,30.04,West,270,0.0,0.0,68,0.00,,,0.00,WUHU21623XXSP,2013-04-19 08:00:00,
2013-04-19 03:05:00,36.3,26.8,30.04,West,270,0.0,0.0,68,0.00,,,0.00,WUHU21623XXSP,2013-04-19 08:05:00,
2013-04-19 03:15:00,36.3,26.8,30.04,WSW,247,0.0,0.0,68,0.00,,,0.00,WUHU21623XXSP,2013-04-19 08:15:00,
2013-04-19 03:20:00,36.1,26.6,30.05,WSW,247,0.0,0.0,68,0.00,,,0.00,WUHU21623XXSP,2013-04-19 08:20:00,
2013-04-19 03:25:00,36.3,26.8,30.04,WSW,247,0.0,0.0,68,0.00,,,0.00,WUHU21623XXSP,2013-04-19 08:25:00,
2013-04-19 03:30:00,36.1,26.6,30.04,WSW,247,0.0,0.0,68,0.00,,,0.00,WUHU21623XXSP,2013-04-19 08:30:00,
2013-04-19 03:35:00,36.1,26.6,30.04,WSW,247,0.0,0.0,68,0.00,,,0.00,WUHU21623XXSP,2013-04-19 08:35:00,
2013-04-19 03:40:00,36.3,26.8,30.04,WSW,247,0.0,0.0,68,0.00,,,0.00,WUHU21623XXSP,2013-04-19 08:40:00,
2013-04-19 03:45:00,36.1,26.6,30.04,WSW,247,0.0,0.0,68,0.00,,,0.00,WUHU21623XXSP,2013-04-19 08:45:00,
2013-04-19 03:50:00,36.0,26.4,30.05,WSW,247,0.0,0.0,68,0.00,,,0.00,WUHU21623XXSP,2013-04-19 08:50:00,
2013-04-19 03:55:00,35.8,26.2,30.05,WSW,247,0.0,0.0,68,0.00,,,0.00,WUHU21623XXSP,2013-04-19 08:55:00,
2013-04-19 04:00:00,35.8,26.2,30.05,WSW,247,0.0,0.0,68,0.00,,,0.00,WUHU21623XXSP,2013-04-19 09:00:00,
2013-04-19 04:05:00,35.4,26.2,30.05,WSW,247,0.0,0.0,69,0.00,,,0.00,WUHU21623XXSP,2013-04-19 09:05:00,
2013-04-19 04:10:00,35.4,26.2,30.05,West,270,0.0,0.0,69,0.00,,,0.00,WUHU21623XXSP,2013-04-19 09:10:00,
2013-04-19 04:15:00,35.4,26.2,30.05,West,270,0.0,0.0,69,0.00,,,0.00,WUHU21623XXSP,2013-04-19 09:15:00,
2013-04-19 04:20:00,35.2,26.1,30.05,West,270,0.0,0.0,69,0.00,,,0.00,WUHU21623XXSP,2013-04-19 09:20:00,
2013-04-19 04:25:00,35.2,26.1,30.05,West,270,0.0,0.0,69,0.00,,,0.00,WUHU21623XXSP,2013-04-19 09:25:00,
2013-04-19 04:30:00,35.2,26.1,30.05,West,270,0.0,0.0,69,0.00,,,0.00,WUHU21623XXSP,2013-04-19 09:30:00,
2013-04-19 04:35:00,35.1,25.9,30.05,West,270,0.0,0.0,69,0.00,,,0.00,WUHU21623XXSP,2013-04-19 09:35:00,
2013-04-19 04:40:00,34.9,25.7,30.05,West,270,0.0,0.0,69,0.00,,,0.00,WUHU21623XXSP,2013-04-19 09:40:00,
2013-04-19 04:45:00,34.9,25.7,30.05,West,270,0.0,0.0,69,0.00,,,0.00,WUHU21623XXSP,2013-04-19 09:45:00,
2013-04-19 04:50:00,34.7,25.5,30.05,West,270,0.0,0.0,69,0.00,,,0.00,WUHU21623XXSP,2013-04-19 09:50:00,
2013-04-19 04:55:00,34.5,25.3,30.05,West,270,0.0,0.0,69,0.00,,,0.00,WUHU21623XXSP,2013-04-19 09:55:00,
2013-04-19 05:00:00,34.3,25.2,30.05,West,270,0.0,0.0,69,0.00,,,0.00,WUHU21623XXSP,2013-04-19 10:00:00,
2013-04-19 05:05:00,34.3,25.5,30.05,West,270,0.0,0.0,70,0.00,,,0.00,WUHU21623XXSP,2013-04-19 10:05:00,
2013-04-19 05:10:00,34.3,25.5,30.05,West,270,0.0,0.0,70,0.00,,,0.00,WUHU21623XXSP,2013-04-19 10:10:00,
2013-04-19 05:15:00,34.2,25.3,30.05,West,270,0.0,0.0,70,0.00,,,0.00,WUHU21623XXSP,2013-04-19 10:15:00,
2013-04-19 05:20:00,34.0,25.5,30.06,WSW,247,0.0,0.0,71,0.00,,,0.00,WUHU21623XXSP,2013-04-19 10:20:00,
2013-04-19 05:25:00,34.0,25.5,30.06,WSW,247,0.0,0.0,71,0.00,,,0.00,WUHU21623XXSP,2013-04-19 10:25:00,
2013-04-19 05:30:00,34.0,25.5,30.06,WSW,247,0.0,0.0,71,0.00,,,0.00,WUHU21623XXSP,2013-04-19 10:30:00,
2013-04-19 05:35:00,33.8,25.3,30.06,WSW,247,0.0,0.0,71,0.00,,,0.00,WUHU21623XXSP,2013-04-19 10:35:00,
2013-04-19 05:40:00,33.6,25.1,30.06,WSW,247,0.0,0.0,71,0.00,,,0.00,WUHU21623XXSP,2013-04-19 10:40:00,
2013-04-19 05:45:00,33.6,25.1,30.06,WSW,247,0.0,0.0,71,0.00,,,0.00,WUHU21623XXSP,2013-04-19 10:45:00,
2013-04-19 05:50:00,33.6,25.5,30.07,WSW,247,0.0,0.0,72,0.00,,,0.00,WUHU21623XXSP,2013-04-19 10:50:00,
2013-04-19 05:55:00,33.4,25.3,30.07,WSW,247,0.0,0.0,72,0.00,,,0.00,WUHU21623XXSP,2013-04-19 10:55:00,
2013-04-19 06:00:00,33.4,25.3,30.08,WSW,247,0.0,0.0,72,0.00,,,0.00,WUHU21623XXSP,2013-04-19 11:00:00,
2013-04-19 06:05:00,33.1,25.0,30.08,WSW,247,0.0,0.0,72,0.00,,,0.00,WUHU21623XXSP,2013-04-19 11:05:00,
2013-04-19 06:10:00,33.1,25.0,30.08,WSW,247,0.0,0.0,72,0.00,,,0.00,WUHU21623XXSP,2013-04-19 11:10:00,
2013-04-19 06:15:00,33.1,25.3,30.08,WSW,247,0.0,0.0,73,0.00,,,0.00,WUHU21623XXSP,2013-04-19 11:15:00,
2013-04-19 06:20:00,32.9,25.1,30.08,WSW,247,0.0,0.0,73,0.00,,,0.00,WUHU21623XXSP,2013-04-19 11:20:00,
2013-04-19 06:25:00,32.7,25.1,30.08,WSW,247,0.0,0.0,73,0.00,,,0.00,WUHU21623XXSP,2013-04-19 11:25:00,
2013-04-19 06:30:00,32.7,25.0,30.09,WSW,247,0.0,0.0,73,0.00,,,0.00,WUHU21623XXSP,2013-04-19 11:30:00,
2013-04-19 06:35:00,32.7,25.0,30.09,WSW,247,0.0,0.0,73,0.00,,,0.00,WUHU21623XXSP,2013-04-19 11:35:00,
2013-04-19 06:40:00,32.7,25.0,30.09,WSW,247,0.0,0.0,73,0.00,,,0.00,WUHU21623XXSP,2013-04-19 11:40:00,
2013-04-19 06:45:00,32.5,25.1,30.10,WSW,247,0.0,0.0,74,0.00,,,0.00,WUHU21623XXSP,2013-04-19 11:45:00,
2013-04-19 06:50:00,32.5,25.1,30.10,WSW,247,0.0,0.0,74,0.00,,,0.00,WUHU21623XXSP,2013-04-19 11:50:00,
2013-04-19 06:55:00,32.5,25.1,30.10,WSW,247,0.0,0.0,74,0.00,,,0.00,WUHU21623XXSP,2013-04-19 11:55:00,
2013-04-19 07:00:00,32.5,25.1,30.10,WSW,247,0.0,0.0,74,0.00,,,0.00,WUHU21623XXSP,2013-04-19 12:00:00,
2013-04-19 07:05:00,32.7,25.3,30.10,WSW,247,0.0,0.0,74,0.00,,,0.00,WUHU21623XXSP,2013-04-19 12:05:00,
2013-04-19 07:10:00,33.1,25.6,30.11,WSW,247,0.0,0.0,74,0.00,,,0.00,WUHU21623XXSP,2013-04-19 12:10:00,
2013-04-19 07:15:00,33.4,26.0,30.10,WSW,247,0.0,0.0,74,0.00,,,0.00,WUHU21623XXSP,2013-04-19 12:15:00,
2013-04-19 07:20:00,34.3,26.5,30.10,WSW,247,0.0,0.0,73,0.00,,,0.00,WUHU21623XXSP,2013-04-19 12:20:00,
2013-04-19 07:25:00,35.8,27.6,30.10,WSW,247,0.0,0.0,72,0.00,,,0.00,WUHU21623XXSP,2013-04-19 12:25:00,
2013-04-19 07:30:00,36.7,27.9,30.11,WSW,247,0.0,0.0,70,0.00,,,0.00,WUHU21623XXSP,2013-04-19 12:30:00,
2013-04-19 07:35:00,37.2,27.6,30.11,WSW,247,0.0,0.0,68,0.00,,,0.00,WUHU21623XXSP,2013-04-19 12:35:00,
2013-04-19 07:40:00,37.0,27.5,30.11,WSW,247,0.0,0.0,68,0.00,,,0.00,WUHU21623XXSP,2013-04-19 12:40:00,
2013-04-19 07:45:00,36.7,27.1,30.12,SSW,202,0.0,0.0,68,0.00,,,0.00,WUHU21623XXSP,2013-04-19 12:45:00,
2013-04-19 07:50:00,36.7,27.1,30.12,WSW,247,0.0,0.0,68,0.00,,,0.00,WUHU21623XXSP,2013-04-19 12:50:00,
2013-04-19 07:55:00,36.5,26.6,30.13,WSW,247,3.8,3.8,67,0.00,,,0.00,WUHU21623XXSP,2013-04-19 12:55:00,
2013-04-19 08:00:00,36.1,26.6,30.12,WSW,247,0.0,3.8,68,0.00,,,0.00,WUHU21623XXSP,2013-04-19 13:00:00,
2013-04-19 08:05:00,37.0,27.5,30.13,WSW,247,0.0,0.0,68,0.00,,,0.00,WUHU21623XXSP,2013-04-19 13:05:00,
2013-04-19 08:10:00,37.2,27.3,30.12,WSW,247,0.0,0.0,67,0.00,,,0.00,WUHU21623XXSP,2013-04-19 13:10:00,
2013-04-19 08:15:00,37.4,27.1,30.13,West,270,0.0,0.0,66,0.00,,,0.00,WUHU21623XXSP,2013-04-19 13:15:00,
2013-04-19 08:20:00,37.6,27.2,30.13,West,270,0.0,0.0,66,0.00,,,0.00,WUHU21623XXSP,2013-04-19 13:20:00,
2013-04-19 08:25:00,37.4,27.1,30.13,NNW,337,0.0,0.0,66,0.00,,,0.00,WUHU21623XXSP,2013-04-19 13:25:00,
2013-04-19 08:30:00,37.0,26.7,30.13,West,270,0.0,0.0,66,0.00,,,0.00,WUHU21623XXSP,2013-04-19 13:30:00,
2013-04-19 08:35:00,36.7,26.4,30.13,NW,315,0.0,0.0,66,0.00,,,0.00,WUHU21623XXSP,2013-04-19 13:35:00,
2013-04-19 08:40:00,36.9,26.9,30.13,West,270,0.0,0.0,67,0.00,,,0.00,WUHU21623XXSP,2013-04-19 13:40:00,
2013-04-19 08:45:00,36.9,26.5,30.14,NNW,337,0.7,0.7,66,0.00,,,0.00,WUHU21623XXSP,2013-04-19 13:45:00,
2013-04-19 08:50:00,36.9,26.5,30.14,NW,315,0.0,0.7,66,0.00,,,0.00,WUHU21623XXSP,2013-04-19 13:50:00,
2013-04-19 08:55:00,37.2,26.9,30.13,NW,315,0.0,0.0,66,0.00,,,0.00,WUHU21623XXSP,2013-04-19 13:55:00,
2013-04-19 09:00:00,37.4,27.1,30.14,WSW,247,0.0,4.0,66,0.00,,,0.00,WUHU21623XXSP,2013-04-19 14:00:00,
2013-04-19 09:05:00,37.8,27.4,30.14,WSW,247,0.0,4.0,66,0.00,,,0.00,WUHU21623XXSP,2013-04-19 14:05:00,
2013-04-19 09:10:00,37.9,27.6,30.13,West,270,0.0,0.0,66,0.00,,,0.00,WUHU21623XXSP,2013-04-19 14:10:00,
2013-04-19 09:15:00,39.0,27.8,30.13,WNW,292,0.0,2.2,64,0.00,,,0.00,WUHU21623XXSP,2013-04-19 14:15:00,
2013-04-19 09:20:00,39.4,28.1,30.14,NNW,337,0.0,2.2,64,0.00,,,0.00,WUHU21623XXSP,2013-04-19 14:20:00,
2013-04-19 09:25:00,39.0,27.4,30.14,NNW,337,0.0,0.0,63,0.00,,,0.00,WUHU21623XXSP,2013-04-19 14:25:00,
2013-04-19 09:30:00,39.4,28.1,30.14,NNW,337,2.2,2.2,64,0.00,,,0.00,WUHU21623XXSP,2013-04-19 14:30:00,
2013-04-19 09:35:00,39.4,28.1,30.14,WSW,247,0.0,2.2,64,0.00,,,0.00,WUHU21623XXSP,2013-04-19 14:35:00,
2013-04-19 09:40:00,39.0,27.0,30.14,West,270,0.0,2.2,62,0.00,,,0.00,WUHU21623XXSP,2013-04-19 14:40:00,
2013-04-19 09:45:00,39.0,27.0,30.13,NW,315,0.0,0.0,62,0.00,,,0.00,WUHU21623XXSP,2013-04-19 14:45:00,
2013-04-19 09:50:00,39.4,27.4,30.13,NW,315,0.0,0.0,62,0.00,,,0.00,WUHU21623XXSP,2013-04-19 14:50:00,
2013-04-19 09:55:00,39.4,27.0,30.14,WSW,247,0.0,0.7,61,0.00,,,0.00,WUHU21623XXSP,2013-04-19 14:55:00,
2013-04-19 10:00:00,39.4,27.0,30.14,NNW,337,0.0,4.3,61,0.00,,,0.00,WUHU21623XXSP,2013-04-19 15:00:00,
2013-04-19 10:05:00,39.7,27.7,30.14,West,270,0.0,4.3,62,0.00,,,0.00,WUHU21623XXSP,2013-04-19 15:05:00,
2013-04-19 10:10:00,39.9,27.5,30.14,WSW,247,0.0,0.0,61,0.00,,,0.00,WUHU21623XXSP,2013-04-19 15:10:00,
2013-04-19 10:15:00,40.3,27.9,30.14,West,270,0.0,0.0,61,0.00,,,0.00,WUHU21623XXSP,2013-04-19 15:15:00,
2013-04-19 10:20:00,40.8,28.0,30.14,WSW,247,6.3,6.3,60,0.00,,,0.00,WUHU21623XXSP,2013-04-19 15:20:00,
2013-04-19 10:25:00,40.8,27.6,30.14,WSW,247,0.0,6.3,59,0.00,,,0.00,WUHU21623XXSP,2013-04-19 15:25:00,
2013-04-19 10:30:00,40.8,28.0,30.14,NNW,337,1.1,2.0,60,0.00,,,0.00,WUHU21623XXSP,2013-04-19 15:30:00,
2013-04-19 10:35:00,41.4,28.1,30.14,NNW,337,0.0,2.0,59,0.00,,,0.00,WUHU21623XXSP,2013-04-19 15:35:00,
2013-04-19 10:40:00,41.7,28.4,30.14,West,270,0.0,0.0,59,0.00,,,0.00,WUHU21623XXSP,2013-04-19 15:40:00,
2013-04-19 10:45:00,42.4,29.1,30.15,NW,315,0.0,0.0,59,0.00,,,0.00,WUHU21623XXSP,2013-04-19 15:45:00,
2013-04-19 10:50:00,42.4,28.2,30.15,WSW,247,0.0,0.9,57,0.00,,,0.00,WUHU21623XXSP,2013-04-19 15:50:00,
2013-04-19 10:55:00,42.6,27.9,30.15,WSW,247,0.0,0.9,56,0.00,,,0.00,WUHU21623XXSP,2013-04-19 15:55:00,
2013-04-19 11:00:00,42.6,27.9,30.15,NNW,337,0.0,0.0,56,0.00,,,0.00,WUHU21623XXSP,2013-04-19 16:00:00,
2013-04-19 11:05:00,42.8,27.7,30.15,WNW,292,0.0,6.3,55,0.00,,,0.00,WUHU21623XXSP,2013-04-19 16:05:00,
2013-04-19 11:10:00,43.0,27.8,30.15,WSW,247,0.0,6.3,55,0.00,,,0.00,WUHU21623XXSP,2013-04-19 16:10:00,
2013-04-19 11:15:00,43.5,28.4,30.15,NNW,337,0.0,3.8,55,0.00,,,0.00,WUHU21623XXSP,2013-04-19 16:15:00,
2013-04-19 11:20:00,43.7,27.6,30.15,WNW,292,0.0,3.8,53,0.00,,,0.00,WUHU21623XXSP,2013-04-19 16:20:00,
2013-04-19 11:25:00,43.9,28.3,30.15,NNW,337,4.7,4.7,54,0.00,,,0.00,WUHU21623XXSP,2013-04-19 16:25:00,
2013-04-19 11:30:00,44.2,27.7,30.15,NNW,337,1.3,4.7,52,0.00,,,0.00,WUHU21623XXSP,2013-04-19 16:30:00,
2013-04-19 11:35:00,44.4,28.3,30.15,WNW,292,0.0,1.3,53,0.00,,,0.00,WUHU21623XXSP,2013-04-19 16:35:00,
2013-04-19 11:40:00,44.6,28.0,30.15,NNW,337,0.0,0.0,52,0.00,,,0.00,WUHU21623XXSP,2013-04-19 16:40:00,
2013-04-19 11:45:00,45.1,28.5,30.15,West,270,0.0,0.0,52,0.00,,,0.00,WUHU21623XXSP,2013-04-19 16:45:00,
2013-04-19 11:50:00,45.3,28.2,30.15,WSW,247,0.0,0.0,51,0.00,,,0.00,WUHU21623XXSP,2013-04-19 16:50:00,
2013-04-19 11:55:00,45.7,29.0,30.15,WSW,247,0.0,0.0,52,0.00,,,0.00,WUHU21623XXSP,2013-04-19 16:55:00,
2013-04-19 12:00:00,46.2,28.1,30.15,WSW,247,0.0,0.0,49,0.00,,,0.00,WUHU21623XXSP,2013-04-19 17:00:00,
2013-04-19 12:05:00,46.6,27.8,30.15,NNW,337,3.6,3.6,48,0.00,,,0.00,WUHU21623XXSP,2013-04-19 17:05:00,
2013-04-19 12:10:00,46.9,28.2,30.15,North,0,0.2,3.6,48,0.00,,,0.00,WUHU21623XXSP,2013-04-19 17:10:00,
2013-04-19 12:15:00,47.1,27.8,30.15,West,270,0.0,0.2,47,0.00,,,0.00,WUHU21623XXSP,2013-04-19 17:15:00,
2013-04-19 12:20:00,47.5,28.1,30.15,North,0,0.0,0.0,47,0.00,,,0.00,WUHU21623XXSP,2013-04-19 17:20:00,
2013-04-19 12:25:00,48.0,27.5,30.15,NW,315,0.0,1.8,45,0.00,,,0.00,WUHU21623XXSP,2013-04-19 17:25:00,
2013-04-19 12:30:00,48.7,28.7,30.15,NNW,337,0.0,2.5,46,0.00,,,0.00,WUHU21623XXSP,2013-04-19 17:30:00,
2013-04-19 12:35:00,49.6,29.6,30.14,WSW,247,0.0,2.5,46,0.00,,,0.00,WUHU21623XXSP,2013-04-19 17:35:00,
2013-04-19 12:40:00,49.8,29.8,30.15,WSW,247,3.4,3.4,46,0.00,,,0.00,WUHU21623XXSP,2013-04-19 17:40:00,
2013-04-19 12:45:00,50.4,29.2,30.15,WSW,247,0.0,4.9,44,0.00,,,0.00,WUHU21623XXSP,2013-04-19 17:45:00,
2013-04-19 12:50:00,50.5,29.3,30.15,North,0,0.0,4.9,44,0.00,,,0.00,WUHU21623XXSP,2013-04-19 17:50:00,
2013-04-19 12:55:00,51.1,29.8,30.14,WSW,247,0.0,1.8,44,0.00,,,0.00,WUHU21623XXSP,2013-04-19 17:55:00,
2013-04-19 13:00:00,51.6,28.6,30.14,WSW,247,0.0,0.0,41,0.00,,,0.00,WUHU21623XXSP,2013-04-19 18:00:00,
2013-04-19 13:05:00,51.6,28.6,30.14,NNW,337,0.0,0.0,41,0.00,,,0.00,WUHU21623XXSP,2013-04-19 18:05:00,
2013-04-19 13:10:00,51.6,28.6,30.13,North,0,3.4,3.4,41,0.00,,,0.00,WUHU21623XXSP,2013-04-19 18:10:00,
2013-04-19 13:15:00,52.0,28.9,30.13,WSW,247,0.0,3.4,41,0.00,,,0.00,WUHU21623XXSP,2013-04-19 18:15:00,
2013-04-19 13:20:00,52.3,29.3,30.13,WSW,247,0.0,0.0,41,0.00,,,0.00,WUHU21623XXSP,2013-04-19 18:20:00,
2013-04-19 13:25:00,52.9,29.8,30.13,WSW,247,0.0,0.0,41,0.00,,,0.00,WUHU21623XXSP,2013-04-19 18:25:00,
2013-04-19 13:30:00,53.1,28.7,30.13,West,270,0.0,3.6,39,0.00,,,0.00,WUHU21623XXSP,2013-04-19 18:30:00,
2013-04-19 13:35:00,53.2,28.8,30.13,NNW,337,0.0,3.6,39,0.00,,,0.00,WUHU21623XXSP,2013-04-19 18:35:00,
2013-04-19 13:40:00,53.4,29.7,30.13,WSW,247,0.0,0.0,40,0.00,,,0.00,WUHU21623XXSP,2013-04-19 18:40:00,
2013-04-19 13:45:00,54.0,29.5,30.13,WSW,247,0.0,2.0,39,0.00,,,0.00,WUHU21623XXSP,2013-04-19 18:45:00,
2013-04-19 13:50:00,53.8,28.6,30.13,WSW,247,0.0,2.0,38,0.00,,,0.00,WUHU21623XXSP,2013-04-19 18:50:00,
2013-04-19 13:55:00,53.8,28.6,30.13,NNE,22,8.7,8.7,38,0.00,,,0.00,WUHU21623XXSP,2013-04-19 18:55:00,
2013-04-19 14:00:00,53.8,29.3,30.13,WSW,247,0.0,8.7,39,0.00,,,0.00,WUHU21623XXSP,2013-04-19 19:00:00,
2013-04-19 14:05:00,54.1,28.9,30.13,WSW,247,0.0,0.0,38,0.00,,,0.00,WUHU21623XXSP,2013-04-19 19:05:00,
2013-04-19 14:10:00,54.0,28.8,30.13,NW,315,0.0,0.0,38,0.00,,,0.00,WUHU21623XXSP,2013-04-19 19:10:00,
2013-04-19 14:15:00,53.8,27.9,30.13,West,270,0.0,0.0,38,0.00,,,0.00,WUHU21623XXSP,2013-04-19 19:15:00,
2013-04-19 14:20:00,54.3,29.8,30.13,WSW,247,7.4,7.4,39,0.00,,,0.00,WUHU21623XXSP,2013-04-19 19:20:00,
2013-04-19 14:25:00,54.7,29.9,30.13,WSW,247,0.0,7.4,39,0.00,,,0.00,WUHU21623XXSP,2013-04-19 19:25:00,
2013-04-19 14:30:00,55.2,30.6,30.13,NW,315,0.0,2.0,39,0.00,,,0.00,WUHU21623XXSP,2013-04-19 19:30:00,
2013-04-19 14:35:00,55.6,28.8,30.13,SW,225,2.9,2.9,36,0.00,,,0.00,WUHU21623XXSP,2013-04-19 19:35:00,
2013-04-19 14:40:00,55.2,29.2,30.13,WSW,247,0.0,2.9,37,0.00,,,0.00,WUHU21623XXSP,2013-04-19 19:40:00,
2013-04-19 14:45:00,55.0,28.3,30.13,WSW,247,0.0,0.0,36,0.00,,,0.00,WUHU21623XXSP,2013-04-19 19:45:00,
2013-04-19 14:50:00,55.0,29.0,30.13,WSW,247,0.0,0.0,37,0.00,,,0.00,WUHU21623XXSP,2013-04-19 19:50:00,
2013-04-19 14:55:00,55.2,29.9,30.13,SW,225,0.0,0.0,38,0.00,,,0.00,WUHU21623XXSP,2013-04-19 19:55:00,
2013-04-19 15:00:00,55.6,28.8,30.13,NNW,337,1.3,6.3,36,0.00,,,0.00,WUHU21623XXSP,2013-04-19 20:00:00,
2013-04-19 15:05:00,55.8,29.0,30.13,WSW,247,5.1,6.3,36,0.00,,,0.00,WUHU21623XXSP,2013-04-19 20:05:00,
2013-04-19 15:10:00,55.9,28.4,30.12,WNW,292,1.1,5.1,35,0.00,,,0.00,WUHU21623XXSP,2013-04-19 20:10:00,
2013-04-19 15:15:00,55.6,28.1,30.12,NNW,337,0.0,1.1,35,0.00,,,0.00,WUHU21623XXSP,2013-04-19 20:15:00,
2013-04-19 15:20:00,55.6,28.8,30.12,South,180,2.0,2.0,36,0.00,,,0.00,WUHU21623XXSP,2013-04-19 20:20:00,
2013-04-19 15:25:00,55.8,29.0,30.12,SW,225,0.0,2.0,36,0.00,,,0.00,WUHU21623XXSP,2013-04-19 20:25:00,
2013-04-19 15:30:00,56.1,29.3,30.11,SSW,202,0.0,0.0,36,0.00,,,0.00,WUHU21623XXSP,2013-04-19 20:30:00,
2013-04-19 15:35:00,56.5,28.2,30.12,NW,315,0.2,0.2,34,0.00,,,0.00,WUHU21623XXSP,2013-04-19 20:35:00,
2013-04-19 15:40:00,56.8,29.2,30.11,WSW,247,0.0,0.2,35,0.00,,,0.00,WUHU21623XXSP,2013-04-19 20:40:00,
2013-04-19 15:45:00,57.0,29.4,30.11,WSW,247,0.0,0.0,35,0.00,,,0.00,WUHU21623XXSP,2013-04-19 20:45:00,
2013-04-19 15:50:00,57.0,28.7,30.11,WSW,247,0.0,0.0,34,0.00,,,0.00,WUHU21623XXSP,2013-04-19 20:50:00,
2013-04-19 15:55:00,56.8,27.8,30.11,NNW,337,0.0,0.0,33,0.00,,,0.00,WUHU21623XXSP,2013-04-19 20:55:00,
2013-04-19 16:00:00,56.8,28.5,30.11,WSW,247,0.9,0.9,34,0.00,,,0.00,WUHU21623XXSP,2013-04-19 21:00:00,
2013-04-19 16:05:00,56.5,28.9,30.10,SSW,202,7.2,7.2,35,0.00,,,0.00,WUHU21623XXSP,2013-04-19 21:05:00,
2013-04-19 16:10:00,56.8,29.2,30.10,WSW,247,0.0,7.2,35,0.00,,,0.00,WUHU21623XXSP,2013-04-19 21:10:00,
2013-04-19 16:15:00,57.4,29.7,30.10,South,180,10.5,10.5,35,0.00,,,0.00,WUHU21623XXSP,2013-04-19 21:15:00,
2013-04-19 16:20:00,57.4,29.7,30.10,WSW,247,0.0,10.5,35,0.00,,,0.00,WUHU21623XXSP,2013-04-19 21:20:00,
2013-04-19 16:25:00,57.2,29.6,30.10,WSW,247,0.0,0.0,35,0.00,,,0.00,WUHU21623XXSP,2013-04-19 21:25:00,
2013-04-19 16:31:00,57.4,29.7,30.10,West,270,6.7,6.7,35,0.00,,,0.00,WUHU21623XXSP,2013-04-19 21:31:00,
2013-04-19 16:36:00,57.4,29.7,30.10,South,180,3.8,7.2,35,0.00,,,0.00,WUHU21623XXSP,2013-04-19 21:36:00,
2013-04-19 16:41:00,56.8,29.2,30.11,WSW,247,0.0,7.2,35,0.00,,,0.00,WUHU21623XXSP,2013-04-19 21:41:00,
2013-04-19 16:46:00,56.5,28.9,30.11,WSW,247,0.0,2.9,35,0.00,,,0.00,WUHU21623XXSP,2013-04-19 21:46:00,
2013-04-19 16:51:00,56.5,28.9,30.11,WSW,247,0.0,2.9,35,0.00,,,0.00,WUHU21623XXSP,2013-04-19 21:51:00,
2013-04-19 16:56:00,56.3,28.8,30.10,WSW,247,0.0,3.4,35,0.00,,,0.00,WUHU21623XXSP,2013-04-19 21:56:00,
2013-04-19 17:01:00,56.1,28.6,30.11,WSW,247,1.8,3.4,35,0.00,,,0.00,WUHU21623XXSP,2013-04-19 22:01:00,
2013-04-19 17:06:00,56.3,28.8,30.11,WSW,247,0.0,1.8,35,0.00,,,0.00,WUHU21623XXSP,2013-04-19 22:06:00,
2013-04-19 17:11:00,56.1,29.3,30.11,West,270,0.0,2.2,36,0.00,,,0.00,WUHU21623XXSP,2013-04-19 22:11:00,
2013-04-19 17:16:00,56.5,29.6,30.11,West,270,0.0,2.2,36,0.00,,,0.00,WUHU21623XXSP,2013-04-19 22:16:00,
2013-04-19 17:21:00,56.5,29.6,30.11,WSW,247,0.0,0.0,36,0.00,,,0.00,WUHU21623XXSP,2013-04-19 22:21:00,
2013-04-19 17:26:00,56.1,28.6,30.11,WSW,247,0.0,0.4,35,0.00,,,0.00,WUHU21623XXSP,2013-04-19 22:26:00,
2013-04-19 17:31:00,55.9,28.4,30.11,West,270,0.0,0.4,35,0.00,,,0.00,WUHU21623XXSP,2013-04-19 22:31:00,
2013-04-19 17:36:00,55.6,28.1,30.11,WSW,247,2.0,2.0,35,0.00,,,0.00,WUHU21623XXSP,2013-04-19 22:36:00,
2013-04-19 17:41:00,55.4,29.4,30.11,WSW,247,0.0,2.0,37,0.00,,,0.00,WUHU21623XXSP,2013-04-19 22:41:00,
2013-04-19 17:46:00,55.6,28.8,30.11,WSW,247,0.0,0.0,36,0.00,,,0.00,WUHU21623XXSP,2013-04-19 22:46:00,
2013-04-19 17:51:00,55.8,29.0,30.12,WSW,247,0.0,1.1,36,0.00,,,0.00,WUHU21623XXSP,2013-04-19 22:51:00,
2013-04-19 17:56:00,55.6,29.0,30.12,WSW,247,0.0,1.1,36,0.00,,,0.00,WUHU21623XXSP,2013-04-19 22:56:00,
2013-04-19 18:01:00,55.8,29.5,30.12,WSW,247,0.0,0.0,37,0.00,,,0.00,WUHU21623XXSP,2013-04-19 23:01:00,
2013-04-19 18:06:00,55.8,29.7,30.12,NW,315,0.0,0.0,36,0.00,,,0.00,WUHU21623XXSP,2013-04-19 23:06:00,
2013-04-19 18:11:00,55.6,28.8,30.12,WNW,292,0.0,0.0,36,0.00,,,0.00,WUHU21623XXSP,2013-04-19 23:11:00,
2013-04-19 18:16:00,55.4,28.8,30.11,NW,315,0.0,0.0,36,0.00,,,0.00,WUHU21623XXSP,2013-04-19 23:16:00,
2013-04-19 18:21:00,55.4,29.4,30.12,West,270,0.0,0.0,37,0.00,,,0.00,WUHU21623XXSP,2013-04-19 23:21:00,
2013-04-19 18:26:00,55.4,29.4,30.11,NNW,337,0.0,0.0,37,0.00,,,0.00,WUHU21623XXSP,2013-04-19 23:26:00,
2013-04-19 18:31:00,55.4,29.4,30.11,WSW,247,0.0,0.0,37,0.00,,,0.00,WUHU21623XXSP,2013-04-19 23:31:00,
2013-04-19 18:36:00,55.6,29.5,30.11,WSW,247,0.0,0.0,37,0.00,,,0.00,WUHU21623XXSP,2013-04-19 23:36:00,
2013-04-19 18:41:00,55.2,29.2,30.12,WSW,247,0.0,0.0,37,0.00,,,0.00,WUHU21623XXSP,2013-04-19 23:41:00,
2013-04-19 18:46:00,55.2,29.2,30.11,WSW,247,0.0,0.0,37,0.00,,,0.00,WUHU21623XXSP,2013-04-19 23:46:00,
2013-04-19 18:51:00,55.0,29.0,30.11,WSW,247,0.0,0.0,37,0.00,,,0.00,WUHU21623XXSP,2013-04-19 23:51:00,
2013-04-19 18:56:00,55.0,29.0,30.11,WSW,247,0.0,0.0,37,0.00,,,0.00,WUHU21623XXSP,2013-04-19 23:56:00,
2013-04-19 19:01:00,55.0,29.0,30.10,WSW,247,1.1,1.1,37,0.00,,,0.00,WUHU21623XXSP,2013-04-20 00:01:00,
2013-04-19 19:06:00,54.7,29.0,30.10,WSW,247,0.0,1.1,37,0.00,,,0.00,WUHU21623XXSP,2013-04-20 00:06:00,
2013-04-19 19:11:00,54.3,28.7,30.11,WSW,247,0.0,0.0,37,0.00,,,0.00,WUHU21623XXSP,2013-04-20 00:11:00,
2013-04-19 19:16:00,54.1,28.4,30.11,WSW,247,0.0,0.0,37,0.00,,,0.00,WUHU21623XXSP,2013-04-20 00:16:00,
2013-04-19 19:21:00,53.8,27.9,30.11,WSW,247,0.0,0.0,38,0.00,,,0.00,WUHU21623XXSP,2013-04-20 00:21:00,
2013-04-19 19:26:00,53.2,28.1,30.11,WSW,247,0.0,0.0,38,0.00,,,0.00,WUHU21623XXSP,2013-04-20 00:26:00,
2013-04-19 19:31:00,52.9,28.5,30.10,WSW,247,0.0,0.0,39,0.00,,,0.00,WUHU21623XXSP,2013-04-20 00:31:00,
2013-04-19 19:36:00,52.5,28.2,30.10,WSW,247,0.0,0.0,39,0.00,,,0.00,WUHU21623XXSP,2013-04-20 00:36:00,
2013-04-19 19:41:00,52.2,28.7,30.10,WSW,247,0.0,0.0,40,0.00,,,0.00,WUHU21623XXSP,2013-04-20 00:41:00,
2013-04-19 19:46:00,51.8,28.4,30.10,WSW,247,0.0,0.0,41,0.00,,,0.00,WUHU21623XXSP,2013-04-20 00:46:00,
2013-04-19 19:51:00,51.3,28.5,30.10,WSW,247,0.0,0.0,42,0.00,,,0.00,WUHU21623XXSP,2013-04-20 00:51:00,
2013-04-19 19:56:00,50.7,28.4,30.10,WSW,247,0.0,0.0,42,0.00,,,0.00,WUHU21623XXSP,2013-04-20 00:56:00,
2013-04-19 20:01:00,50.5,28.9,30.10,WSW,247,0.0,0.0,43,0.00,,,0.00,WUHU21623XXSP,2013-04-20 01:01:00,
2013-04-19 20:06:00,49.8,28.7,30.10,WSW,247,0.0,0.0,44,0.00,,,0.00,WUHU21623XXSP,2013-04-20 01:06:00,
2013-04-19 20:11:00,49.1,28.5,30.10,WSW,247,0.0,0.0,45,0.00,,,0.00,WUHU21623XXSP,2013-04-20 01:11:00,
2013-04-19 20:16:00,48.7,28.9,30.10,WSW,247,0.0,0.0,46,0.00,,,0.00,WUHU21623XXSP,2013-04-20 01:16:00,
2013-04-19 20:21:00,48.0,28.6,30.12,WSW,247,0.0,0.0,47,0.00,,,0.00,WUHU21623XXSP,2013-04-20 01:21:00,
2013-04-19 20:26:00,47.5,28.7,30.11,WSW,247,0.0,0.0,48,0.00,,,0.00,WUHU21623XXSP,2013-04-20 01:26:00,
2013-04-19 20:31:00,47.1,28.9,30.11,WSW,247,0.0,0.0,49,0.00,,,0.00,WUHU21623XXSP,2013-04-20 01:31:00,
2013-04-19 20:36:00,46.6,28.9,30.12,WSW,247,0.0,0.0,50,0.00,,,0.00,WUHU21623XXSP,2013-04-20 01:36:00,
2013-04-19 20:41:00,46.0,28.4,30.12,WSW,247,0.0,0.0,50,0.00,,,0.00,WUHU21623XXSP,2013-04-20 01:41:00,
2013-04-19 20:46:00,45.7,28.4,30.12,WSW,247,0.0,0.0,51,0.00,,,0.00,WUHU21623XXSP,2013-04-20 01:46:00,
2013-04-19 20:51:00,45.1,28.1,30.11,WSW,247,0.0,0.0,51,0.00,,,0.00,WUHU21623XXSP,2013-04-20 01:51:00,
2013-04-19 20:56:00,45.0,28.4,30.12,WSW,247,0.0,0.0,52,0.00,,,0.00,WUHU21623XXSP,2013-04-20 01:56:00,
2013-04-19 21:01:00,44.8,28.2,30.12,WSW,247,0.0,0.0,52,0.00,,,0.00,WUHU21623XXSP,2013-04-20 02:01:00,
2013-04-19 21:06:00,44.4,28.8,30.12,WSW,247,0.0,0.0,54,0.00,,,0.00,WUHU21623XXSP,2013-04-20 02:06:00,
2013-04-19 21:11:00,44.2,28.6,30.12,WSW,247,0.0,0.0,54,0.00,,,0.00,WUHU21623XXSP,2013-04-20 02:11:00,
2013-04-19 21:16:00,43.9,28.4,30.12,WSW,247,0.0,0.0,55,0.00,,,0.00,WUHU21623XXSP,2013-04-20 02:16:00,
2013-04-19 21:21:00,43.7,28.7,30.13,WSW,247,0.0,0.0,55,0.00,,,0.00,WUHU21623XXSP,2013-04-20 02:21:00,
2013-04-19 21:26:00,43.5,28.8,30.12,WSW,247,0.0,0.0,56,0.00,,,0.00,WUHU21623XXSP,2013-04-20 02:26:00,
2013-04-19 21:31:00,43.5,28.8,30.13,WSW,247,0.0,0.0,56,0.00,,,0.00,WUHU21623XXSP,2013-04-20 02:31:00,
2013-04-19 21:36:00,43.2,28.9,30.12,WSW,247,0.0,0.0,57,0.00,,,0.00,WUHU21623XXSP,2013-04-20 02:36:00,
2013-04-19 21:41:00,43.0,29.3,30.13,WSW,247,0.0,0.0,58,0.00,,,0.00,WUHU21623XXSP,2013-04-20 02:41:00,
2013-04-19 21:46:00,43.0,29.1,30.13,WSW,247,0.0,0.0,58,0.00,,,0.00,WUHU21623XXSP,2013-04-20 02:46:00,
2013-04-19 21:51:00,42.6,28.8,30.13,WSW,247,0.0,0.0,58,0.00,,,0.00,WUHU21623XXSP,2013-04-20 02:51:00,
2013-04-19 21:56:00,42.4,28.6,30.13,WSW,247,0.0,0.0,58,0.00,,,0.00,WUHU21623XXSP,2013-04-20 02:56:00,
2013-04-19 22:01:00,42.3,28.5,30.14,WSW,247,0.0,0.0,58,0.00,,,0.00,WUHU21623XXSP,2013-04-20 03:01:00,
2013-04-19 22:06:00,42.1,30.0,30.14,WSW,247,0.0,0.0,62,0.00,,,0.00,WUHU21623XXSP,2013-04-20 03:06:00,
2013-04-19 22:11:00,41.9,29.8,30.14,WSW,247,0.0,0.0,62,0.00,,,0.00,WUHU21623XXSP,2013-04-20 03:11:00,
2013-04-19 22:16:00,41.7,29.8,30.14,WSW,247,0.0,0.0,63,0.00,,,0.00,WUHU21623XXSP,2013-04-20 03:16:00,
2013-04-19 22:21:00,41.5,29.8,30.14,WSW,247,0.0,0.0,63,0.00,,,0.00,WUHU21623XXSP,2013-04-20 03:21:00,
2013-04-19 22:26:00,41.5,30.2,30.14,WSW,247,0.0,0.0,64,0.00,,,0.00,WUHU21623XXSP,2013-04-20 03:26:00,
2013-04-19 22:31:00,41.4,30.1,30.14,WSW,247,0.0,0.0,64,0.00,,,0.00,WUHU21623XXSP,2013-04-20 03:31:00,
2013-04-19 22:36:00,41.2,29.9,30.14,WSW,247,0.0,0.0,64,0.00,,,0.00,WUHU21623XXSP,2013-04-20 03:36:00,
2013-04-19 22:41:00,40.8,30.1,30.14,WSW,247,0.0,0.0,65,0.00,,,0.00,WUHU21623XXSP,2013-04-20 03:41:00,
2013-04-19 22:46:00,40.8,29.6,30.15,WSW,247,0.0,0.0,64,0.00,,,0.00,WUHU21623XXSP,2013-04-20 03:46:00,
2013-04-19 22:51:00,40.5,29.6,30.15,WSW,247,0.0,0.0,65,0.00,,,0.00,WUHU21623XXSP,2013-04-20 03:51:00,
2013-04-19 22:56:00,40.5,29.9,30.14,WSW,247,0.0,0.0,66,0.00,,,0.00,WUHU21623XXSP,2013-04-20 03:56:00,
2013-04-19 23:01:00,40.3,29.8,30.14,WSW,247,0.0,0.0,66,0.00,,,0.00,WUHU21623XXSP,2013-04-20 04:01:00,
2013-04-19 23:06:00,39.9,30.0,30.15,WSW,247,0.0,0.0,67,0.00,,,0.00,WUHU21623XXSP,2013-04-20 04:06:00,
2013-04-19 23:11:00,39.9,29.8,30.15,WSW,247,0.0,0.0,67,0.00,,,0.00,WUHU21623XXSP,2013-04-20 04:11:00,
2013-04-19 23:16:00,39.7,29.6,30.15,WSW,247,0.0,0.0,67,0.00,,,0.00,WUHU21623XXSP,2013-04-20 04:16:00,
2013-04-19 23:21:00,39.4,29.2,30.15,WSW,247,0.0,0.0,67,0.00,,,0.00,WUHU21623XXSP,2013-04-20 04:21:00,
2013-04-19 23:26:00,39.4,29.2,30.15,WSW,247,0.0,0.0,67,0.00,,,0.00,WUHU21623XXSP,2013-04-20 04:26:00,
2013-04-19 23:31:00,39.4,29.6,30.15,WSW,247,0.0,0.0,68,0.00,,,0.00,WUHU21623XXSP,2013-04-20 04:31:00,
2013-04-19 23:36:00,39.0,29.8,30.15,WSW,247,0.0,0.0,68,0.00,,,0.00,WUHU21623XXSP,2013-04-20 04:36:00,
2013-04-19 23:41:00,39.0,29.3,30.15,WSW,247,0.0,0.0,68,0.00,,,0.00,WUHU21623XXSP,2013-04-20 04:41:00,
2013-04-19 23:46:00,39.0,29.7,30.15,WSW,247,0.0,0.0,69,0.00,,,0.00,WUHU21623XXSP,2013-04-20 04:46:00,
2013-04-19 23:51:00,39.0,29.7,30.15,WSW,247,0.0,0.0,69,0.00,,,0.00,WUHU21623XXSP,2013-04-20 04:51:00,
2013-04-19 23:56:00,39.0,29.7,30.15,WSW,247,0.0,0.0,69,0.00,,,0.00,WUHU21623XXSP,2013-04-20 04:56:00,